Location: Fort Frances
(48.6170°N, 93.4170°W)
Time: 15:44:26
(UTC-05:00)

ISS - All Passes

Search period start: 27 April 2015 00:00
Search period end: 07 May 2015 00:00
Orbit: 395 x 402 km, 51.6° (Epoch: 27 April)

Date Brightness Start Highest point End Pass type
(mag) Time Alt. Az. Time Alt. Az. Time Alt. Az.
27 Apr - 12:11:31 10° SSW 12:14:22 29° SE 12:17:15 10° E daylight
27 Apr - 13:47:17 10° WSW 13:50:33 71° NNW 13:53:49 10° ENE daylight
27 Apr - 15:23:59 10° WNW 15:27:10 47° N 15:30:21 10° E daylight
27 Apr - 17:00:25 10° WNW 17:03:42 85° SSW 17:06:58 10° ESE daylight
27 Apr - 18:37:20 10° W 18:39:42 18° SW 18:42:02 10° S daylight
28 Apr - 11:18:10 10° S 11:20:22 17° SE 11:22:39 10° E daylight
28 Apr - 12:53:06 10° WSW 12:56:21 81° SSE 12:59:38 10° ENE daylight
28 Apr - 14:29:42 10° W 14:32:53 47° N 14:36:04 10° ENE daylight
28 Apr - 16:06:14 10° WNW 16:09:29 68° NNE 16:12:45 10° E daylight
28 Apr - 17:42:46 10° W 17:45:42 30° SW 17:48:36 10° SSE daylight
29 Apr - 11:59:01 10° SW 12:02:11 51° SSE 12:05:22 10° ENE daylight
29 Apr - 13:35:21 10° W 13:38:34 53° N 13:41:47 10° ENE daylight
29 Apr - 15:11:59 10° WNW 15:15:13 54° N 15:18:25 10° E daylight
29 Apr - 16:48:24 10° WNW 16:51:35 51° SSW 16:54:45 10° SE daylight
30 Apr - 11:05:09 10° SSW 11:08:02 31° SE 11:10:59 10° E daylight
30 Apr - 12:41:00 10° W 12:44:14 68° NNW 12:47:30 10° ENE daylight
30 Apr - 14:17:41 10° WNW 14:20:51 47° N 14:24:02 10° E daylight
30 Apr - 15:54:06 10° WNW 15:57:22 81° SSW 16:00:37 10° ESE daylight
30 Apr - 17:31:05 10° W 17:33:20 17° SW 17:35:32 10° S daylight
01 May - 10:11:35 10° S 10:13:55 19° SE 10:16:18 10° E daylight
01 May - 11:46:40 10° WSW 11:49:56 86° SSE 11:53:12 10° ENE daylight
01 May - 13:23:16 10° WNW 13:26:27 47° N 13:29:37 10° ENE daylight
01 May - 14:59:47 10° WNW 15:03:03 71° NNE 15:06:18 10° ESE daylight
01 May - 16:36:20 10° W 16:39:13 28° SW 16:42:04 10° SSE daylight
02 May - 09:19:06 10° SSE 09:19:49 11° SE 09:20:39 10° ESE daylight
02 May - 10:52:26 10° SW 10:55:37 55° SSE 10:58:49 10° ENE daylight
02 May - 12:28:49 10° W 12:32:00 52° N 12:35:13 10° ENE daylight
02 May - 14:05:25 10° WNW 14:08:38 55° N 14:11:51 10° E daylight
02 May - 15:41:50 10° WNW 15:45:00 47° SSW 15:48:08 10° SE daylight
03 May - 09:58:24 10° SSW 10:01:20 33° SE 10:04:19 10° E daylight
03 May - 11:34:19 10° W 11:37:34 65° NNW 11:40:48 10° ENE daylight
03 May - 13:11:00 10° WNW 13:14:10 48° N 13:17:21 10° E daylight
03 May - 14:47:24 10° WNW 14:50:39 76° SSW 14:53:54 10° ESE daylight
03 May - 16:24:28 10° W 16:26:36 16° SW 16:28:39 10° S daylight
04 May - 09:04:41 10° S 09:07:05 20° SE 09:09:34 10° E daylight
04 May - 10:39:51 10° WSW 10:43:07 90° SSE 10:46:23 10° ENE daylight
04 May - 12:16:29 10° WNW 12:19:38 47° N 12:22:49 10° ENE daylight
04 May - 13:52:58 10° WNW 13:56:13 74° NNE 13:59:29 10° ESE daylight
04 May - 15:29:32 10° W 15:32:21 27° SW 15:35:09 10° SSE daylight
05 May - 08:11:47 10° SSE 08:12:53 11° SE 08:14:03 10° ESE daylight
05 May - 09:45:29 10° SW 09:48:41 58° SSE 09:51:54 10° ENE daylight
05 May - 11:21:54 10° W 11:25:05 51° N 11:28:17 10° ENE daylight
05 May - 12:58:29 10° WNW 13:01:42 56° NNE 13:04:55 10° E daylight
05 May - 14:34:53 10° WNW 14:38:01 44° SSW 14:41:08 10° SE daylight
06 May - 08:51:18 10° SSW 08:54:16 35° SSE 08:57:17 10° E daylight
06 May - 10:27:17 10° W 10:30:31 63° NNW 10:33:45 10° ENE daylight
06 May - 12:03:56 10° WNW 12:07:06 48° N 12:10:17 10° E daylight
06 May - 13:40:20 10° WNW 13:43:34 73° SSW 13:46:49 10° ESE daylight
06 May - 15:17:30 10° W 15:19:29 15° SW 15:21:23 10° S daylight
